User: anonymous   Login
Location: Norwich
(52.6280°N, 1.3030°E)
Time: 00:33:45
(UTC+00:00)
Language:

Meteor 1-22 Rocket - Orbit

View from above orbital plane
View from above orbital plane
View from above satellite
View from above satellite

Ground track
Ground track

The orbit data is extracted from the following two-line orbital elements,

1 08294U 75087B   15059.23269791  .00000046  00000-0  19303-4 0  9999
2 08294 081.2120 121.3109 0104743 251.1353 107.8437 14.08501245 26609
Epoch (UTC): 28 February 2015 05:35:05
Eccentricity: 0.0104743
inclination: 81.2120°
perigee height: 788 km
apogee height: 940 km
right ascension of ascending node: 121.3109°
argument of perigee: 251.1353°
revolutions per day: 14.08501245
mean anomaly at epoch: 107.8437°
orbit number at epoch: 2660

The dashed part of the orbit path shows where the satellite is in the earth's shadow,  

DLR